BEIDOU-2 IGSO-2

Last updated on Wed Dec 10 2025 00:02:47 GMT+0000 (Coordinated Universal Time)

1 37256U 10068A 25337.72402810 -.00000225 00000+0 00000+0 0 9990 2 37256 47.9042 274.2614 0049244 216.1411 310.2400 1.00288720 54834
UTC large
Height (km)
Speed (km/s)
/
Latitude / Longitude
Inclination (degrees)
Orbital Period (minutes)
Azimuth
Elevation
Range (km)
Doppler Factor

Next 0 passes for location: London (51.5072 / 0.1276)

Sorry there are no passes over London.